Time,TemperatureF,DewpointF,PressureIn,WindDirection,WindDirectionDegrees,WindSpeedMPH,WindSpeedGustMPH,Humidity,HourlyPrecipIn,Conditions,Clouds,dailyrainin,SoftwareType,DateUTC
2013-03-06 00:12:00,33.8,25.4,29.66,East,90,2.0,-999.0,71,-99.99,,,0.00,Acu-Link.com,2013-03-06 05:12:00,
2013-03-06 00:27:00,33.8,25.1,29.66,SE,135,4.0,-999.0,70,-99.99,,,0.00,Acu-Link.com,2013-03-06 05:27:00,
2013-03-06 00:42:00,33.8,25.4,29.66,ENE,67,1.6,-999.0,71,-99.99,,,0.00,Acu-Link.com,2013-03-06 05:42:00,
2013-03-06 01:11:00,33.8,25.4,29.66,NE,45,2.7,-999.0,71,-99.99,,,0.00,Acu-Link.com,2013-03-06 06:11:00,
2013-03-06 01:27:00,33.8,25.1,29.67,NNE,22,4.0,-999.0,70,-99.99,,,0.00,Acu-Link.com,2013-03-06 06:27:00,
2013-03-06 01:42:00,33.8,25.4,29.67,NNE,22,1.6,-999.0,71,-99.99,,,0.00,Acu-Link.com,2013-03-06 06:42:00,
2013-03-06 01:57:00,33.8,25.4,29.67,NNW,337,1.1,-999.0,71,-99.99,,,0.00,Acu-Link.com,2013-03-06 06:57:00,
2013-03-06 02:12:00,35.6,26.8,29.67,East,90,1.6,-999.0,70,-99.99,,,0.00,Acu-Link.com,2013-03-06 07:12:00,
2013-03-06 02:27:00,35.6,26.5,29.68,ENE,67,4.7,-999.0,69,-99.99,,,0.00,Acu-Link.com,2013-03-06 07:27:00,
2013-03-06 02:42:00,35.6,26.5,29.69,East,90,2.0,-999.0,69,-99.99,,,0.00,Acu-Link.com,2013-03-06 07:42:00,
2013-03-06 02:57:00,35.6,26.8,29.69,ESE,112,3.1,-999.0,70,-99.99,,,0.00,Acu-Link.com,2013-03-06 07:57:00,
2013-03-06 03:12:00,35.6,27.5,29.69,NE,45,2.0,-999.0,72,-99.99,,,0.00,Acu-Link.com,2013-03-06 08:12:00,
2013-03-06 03:27:00,35.6,26.8,29.70,NE,45,4.0,-999.0,70,-99.99,,,0.00,Acu-Link.com,2013-03-06 08:27:00,
2013-03-06 03:42:00,35.6,27.1,29.70,NNE,22,3.1,-999.0,71,-99.99,,,0.00,Acu-Link.com,2013-03-06 08:42:00,
2013-03-06 03:57:00,35.6,27.1,29.71,NE,45,2.7,-999.0,71,-99.99,,,0.00,Acu-Link.com,2013-03-06 08:57:00,
2013-03-06 04:23:00,33.8,25.7,29.72,ENE,67,1.6,-999.0,72,-99.99,,,0.00,Acu-Link.com,2013-03-06 09:23:00,
2013-03-06 04:38:00,35.6,27.8,29.73,SE,135,0.0,-999.0,73,-99.99,,,0.00,Acu-Link.com,2013-03-06 09:38:00,
2013-03-06 04:53:00,35.6,27.8,29.75,NE,45,0.0,-999.0,73,-99.99,,,0.00,Acu-Link.com,2013-03-06 09:53:00,
2013-03-06 05:08:00,35.6,28.1,29.75,NNE,22,2.0,-999.0,74,-99.99,,,0.00,Acu-Link.com,2013-03-06 10:08:00,
2013-03-06 05:24:00,35.6,28.5,29.76,ENE,67,3.1,-999.0,75,-99.99,,,0.00,Acu-Link.com,2013-03-06 10:24:00,
2013-03-06 05:39:00,35.6,28.1,29.77,East,90,2.7,-999.0,74,-99.99,,,0.00,Acu-Link.com,2013-03-06 10:39:00,
2013-03-06 05:54:00,35.6,28.5,29.78,NE,45,2.0,-999.0,75,-99.99,,,0.00,Acu-Link.com,2013-03-06 10:54:00,
2013-03-06 06:09:00,35.6,28.5,29.79,North,0,2.0,-999.0,75,-99.99,,,0.00,Acu-Link.com,2013-03-06 11:09:00,
2013-03-06 06:24:00,35.6,28.8,29.80,NW,315,2.0,-999.0,76,-99.99,,,0.00,Acu-Link.com,2013-03-06 11:24:00,
2013-03-06 06:39:00,33.8,27.4,29.82,NNE,22,0.0,-999.0,77,-99.99,,,0.00,Acu-Link.com,2013-03-06 11:39:00,
2013-03-06 06:54:00,35.6,29.1,29.83,SE,135,5.1,-999.0,77,-99.99,,,0.00,Acu-Link.com,2013-03-06 11:54:00,
2013-03-06 07:09:00,33.8,27.4,29.84,North,0,1.1,-999.0,77,-99.99,,,0.00,Acu-Link.com,2013-03-06 12:09:00,
2013-03-06 07:24:00,33.8,27.7,29.85,NNE,22,1.6,-999.0,78,-99.99,,,0.00,Acu-Link.com,2013-03-06 12:24:00,
2013-03-06 07:39:00,32.0,25.9,29.87,NNW,337,2.0,-999.0,78,-99.99,,,0.00,Acu-Link.com,2013-03-06 12:39:00,
2013-03-06 07:54:00,32.0,25.9,29.88,WNW,292,1.1,-999.0,78,-99.99,,,0.00,Acu-Link.com,2013-03-06 12:54:00,
2013-03-06 08:09:00,32.0,25.9,29.88,NNW,337,1.6,-999.0,78,-99.99,,,0.00,Acu-Link.com,2013-03-06 13:09:00,
2013-03-06 08:24:00,33.8,27.7,29.89,ENE,67,2.7,-999.0,78,-99.99,,,0.00,Acu-Link.com,2013-03-06 13:24:00,
2013-03-06 08:39:00,33.8,27.1,29.91,East,90,4.0,-999.0,76,-99.99,,,0.00,Acu-Link.com,2013-03-06 13:39:00,
2013-03-06 08:55:00,35.6,28.8,29.92,SE,135,2.0,-999.0,76,-99.99,,,0.00,Acu-Link.com,2013-03-06 13:55:00,
2013-03-06 09:10:00,35.6,28.1,29.93,NNE,22,2.7,-999.0,74,-99.99,,,0.00,Acu-Link.com,2013-03-06 14:10:00,
2013-03-06 09:25:00,35.6,28.1,29.94,East,90,2.7,-999.0,74,-99.99,,,0.00,Acu-Link.com,2013-03-06 14:25:00,
2013-03-06 09:40:00,39.2,30.9,29.95,NE,45,2.7,-999.0,72,-99.99,,,0.00,Acu-Link.com,2013-03-06 14:40:00,
2013-03-06 09:55:00,41.0,31.3,29.95,NE,45,3.1,-999.0,68,-99.99,,,0.00,Acu-Link.com,2013-03-06 14:55:00,
2013-03-06 10:10:00,39.2,29.9,29.96,NNW,337,2.0,-999.0,69,-99.99,,,0.00,Acu-Link.com,2013-03-06 15:10:00,
2013-03-06 10:25:00,41.0,31.6,29.96,NW,315,2.0,-999.0,69,-99.99,,,0.00,Acu-Link.com,2013-03-06 15:25:00,
2013-03-06 10:40:00,41.0,31.3,29.97,NE,45,4.0,-999.0,68,-99.99,,,0.00,Acu-Link.com,2013-03-06 15:40:00,
2013-03-06 10:55:00,41.0,30.9,29.98,WNW,292,6.3,-999.0,67,-99.99,,,0.00,Acu-Link.com,2013-03-06 15:55:00,
2013-03-06 11:10:00,41.0,31.3,29.98,East,90,2.7,-999.0,68,-99.99,,,0.00,Acu-Link.com,2013-03-06 16:10:00,
2013-03-06 11:25:00,41.0,29.8,29.99,East,90,2.7,-999.0,64,-99.99,,,0.00,Acu-Link.com,2013-03-06 16:25:00,
2013-03-06 11:40:00,41.0,30.2,29.99,NNW,337,1.6,-999.0,65,-99.99,,,0.00,Acu-Link.com,2013-03-06 16:40:00,
2013-03-06 11:55:00,41.0,29.8,30.00,West,270,2.7,-999.0,64,-99.99,,,0.00,Acu-Link.com,2013-03-06 16:55:00,
2013-03-06 12:10:00,41.0,31.3,30.00,NNE,22,4.0,-999.0,68,-99.99,,,0.00,Acu-Link.com,2013-03-06 17:10:00,
2013-03-06 12:25:00,42.8,32.2,30.01,WNW,292,7.8,-999.0,66,-99.99,,,0.00,Acu-Link.com,2013-03-06 17:25:00,
2013-03-06 12:40:00,42.8,32.6,30.01,North,0,3.6,-999.0,67,-99.99,,,0.00,Acu-Link.com,2013-03-06 17:40:00,
2013-03-06 12:55:00,41.0,31.3,30.01,West,270,4.0,-999.0,68,-99.99,,,0.00,Acu-Link.com,2013-03-06 17:55:00,
2013-03-06 13:10:00,44.6,33.2,30.01,NNW,337,2.7,-999.0,64,-99.99,,,0.00,Acu-Link.com,2013-03-06 18:10:00,
2013-03-06 13:25:00,44.6,33.2,30.01,West,270,3.1,-999.0,64,-99.99,,,0.00,Acu-Link.com,2013-03-06 18:25:00,
2013-03-06 13:40:00,44.6,33.2,30.01,WNW,292,4.0,-999.0,64,-99.99,,,0.00,Acu-Link.com,2013-03-06 18:40:00,
2013-03-06 13:55:00,44.6,31.2,30.01,NE,45,3.6,-999.0,59,-99.99,,,0.00,Acu-Link.com,2013-03-06 18:55:00,
2013-03-06 14:10:00,44.6,31.6,30.01,WNW,292,6.3,-999.0,60,-99.99,,,0.00,Acu-Link.com,2013-03-06 19:10:00,
2013-03-06 14:25:00,44.6,32.4,30.01,WNW,292,5.1,-999.0,62,-99.99,,,0.00,Acu-Link.com,2013-03-06 19:25:00,
2013-03-06 14:40:00,44.6,31.2,30.02,NNW,337,3.6,-999.0,59,-99.99,,,0.00,Acu-Link.com,2013-03-06 19:40:00,
2013-03-06 14:55:00,44.6,30.7,30.02,North,0,2.7,-999.0,58,-99.99,,,0.00,Acu-Link.com,2013-03-06 19:55:00,
2013-03-06 15:10:00,44.6,31.6,30.03,NNW,337,2.7,-999.0,60,-99.99,,,0.00,Acu-Link.com,2013-03-06 20:10:00,
2013-03-06 15:25:00,44.6,32.4,30.04,East,90,2.7,-999.0,62,-99.99,,,0.00,Acu-Link.com,2013-03-06 20:25:00,
2013-03-06 15:40:00,42.8,31.1,30.05,NNE,22,2.7,-999.0,63,-99.99,,,0.00,Acu-Link.com,2013-03-06 20:40:00,
2013-03-06 15:55:00,41.0,30.2,30.05,NNW,337,3.6,-999.0,65,-99.99,,,0.00,Acu-Link.com,2013-03-06 20:55:00,
2013-03-06 16:10:00,41.0,30.9,30.05,NE,45,3.6,-999.0,67,-99.99,,,0.00,Acu-Link.com,2013-03-06 21:10:00,
2013-03-06 16:25:00,41.0,30.9,30.05,NW,315,3.6,-999.0,67,-99.99,,,0.00,Acu-Link.com,2013-03-06 21:25:00,
2013-03-06 16:40:00,42.8,30.7,30.05,NW,315,2.7,-999.0,62,-99.99,,,0.00,Acu-Link.com,2013-03-06 21:40:00,
2013-03-06 16:55:00,42.8,29.1,30.05,NE,45,4.0,-999.0,58,-99.99,,,0.00,Acu-Link.com,2013-03-06 21:55:00,
2013-03-06 17:10:00,42.8,29.5,30.05,NNW,337,3.6,-999.0,59,-99.99,,,0.00,Acu-Link.com,2013-03-06 22:10:00,
2013-03-06 17:25:00,41.0,28.6,30.06,West,270,2.0,-999.0,61,-99.99,,,0.00,Acu-Link.com,2013-03-06 22:25:00,
2013-03-06 17:40:00,41.0,29.4,30.07,NE,45,1.6,-999.0,63,-99.99,,,0.00,Acu-Link.com,2013-03-06 22:40:00,
2013-03-06 17:55:00,37.4,26.7,30.07,NW,315,0.0,-999.0,65,-99.99,,,0.00,Acu-Link.com,2013-03-06 22:55:00,
2013-03-06 18:10:00,37.4,28.2,30.07,NW,315,1.6,-999.0,69,-99.99,,,0.00,Acu-Link.com,2013-03-06 23:10:00,
2013-03-06 18:25:00,35.6,26.8,30.09,NW,315,0.0,-999.0,70,-99.99,,,0.00,Acu-Link.com,2013-03-06 23:25:00,
2013-03-06 18:41:00,35.6,28.5,30.10,NW,315,0.0,-999.0,75,-99.99,,,0.00,Acu-Link.com,2013-03-06 23:41:00,
2013-03-06 18:56:00,33.8,27.4,30.10,NNW,337,0.0,-999.0,77,-99.99,,,0.00,Acu-Link.com,2013-03-06 23:56:00,
2013-03-06 19:11:00,32.0,25.9,30.11,NNE,22,0.0,-999.0,78,-99.99,,,0.00,Acu-Link.com,2013-03-07 00:11:00,
2013-03-06 19:26:00,32.0,25.9,30.12,WNW,292,0.0,-999.0,78,-99.99,,,0.00,Acu-Link.com,2013-03-07 00:26:00,
2013-03-06 19:41:00,32.0,27.1,30.13,WNW,292,0.0,-999.0,82,-99.99,,,0.00,Acu-Link.com,2013-03-07 00:41:00,
2013-03-06 19:56:00,32.0,28.3,30.13,WNW,292,0.0,-999.0,86,-99.99,,,0.00,Acu-Link.com,2013-03-07 00:56:00,
2013-03-06 20:11:00,30.2,26.8,30.13,WNW,292,0.0,-999.0,87,-99.99,,,0.00,Acu-Link.com,2013-03-07 01:11:00,
2013-03-06 20:26:00,30.2,26.5,30.13,WNW,292,0.0,-999.0,86,-99.99,,,0.00,Acu-Link.com,2013-03-07 01:26:00,
2013-03-06 20:41:00,30.2,27.1,30.14,WNW,292,0.0,-999.0,88,-99.99,,,0.00,Acu-Link.com,2013-03-07 01:41:00,
2013-03-06 20:56:00,30.2,28.2,30.14,North,0,0.0,-999.0,92,-99.99,,,0.00,Acu-Link.com,2013-03-07 01:56:00,
2013-03-06 21:11:00,30.2,27.9,30.14,WNW,292,0.0,-999.0,91,-99.99,,,0.00,Acu-Link.com,2013-03-07 02:11:00,
2013-03-06 21:26:00,28.4,26.1,30.15,WNW,292,0.0,-999.0,91,-99.99,,,0.00,Acu-Link.com,2013-03-07 02:26:00,
2013-03-06 21:41:00,28.4,26.4,30.16,WNW,292,0.0,-999.0,92,-99.99,,,0.00,Acu-Link.com,2013-03-07 02:41:00,
2013-03-06 21:56:00,28.4,26.4,30.15,ESE,112,0.0,-999.0,92,-99.99,,,0.00,Acu-Link.com,2013-03-07 02:56:00,
2013-03-06 22:11:00,28.4,26.6,30.16,WNW,292,0.0,-999.0,93,-99.99,,,0.00,Acu-Link.com,2013-03-07 03:11:00,
2013-03-06 22:26:00,28.4,26.6,30.16,WNW,292,0.0,-999.0,93,-99.99,,,0.00,Acu-Link.com,2013-03-07 03:26:00,
2013-03-06 22:41:00,30.2,28.9,30.16,West,270,2.0,-999.0,95,-99.99,,,0.00,Acu-Link.com,2013-03-07 03:41:00,
2013-03-06 22:56:00,30.2,28.9,30.16,West,270,0.0,-999.0,95,-99.99,,,0.00,Acu-Link.com,2013-03-07 03:56:00,
2013-03-06 23:11:00,30.2,28.9,30.17,WNW,292,0.0,-999.0,95,-99.99,,,0.00,Acu-Link.com,2013-03-07 04:11:00,
2013-03-06 23:26:00,30.2,28.9,30.16,West,270,3.6,-999.0,95,-99.99,,,0.00,Acu-Link.com,2013-03-07 04:26:00,
2013-03-06 23:41:00,32.0,31.0,30.16,WNW,292,2.0,-999.0,96,-99.99,,,0.00,Acu-Link.com,2013-03-07 04:41:00,
2013-03-06 23:56:00,32.0,31.0,30.16,NNW,337,0.0,-999.0,96,-99.99,,,0.00,Acu-Link.com,2013-03-07 04:56:00,